KSBAKAVX

Guest
Details From KSBA - Santa Barbara Mun
To KAVX - Catalina
Flight Number -
Tags generated
Created
Modified
Stats Distance 94 nm / 174 km
Max Altitude 8,100 ft / 2,469 m
Waypoints 3
Social Downloads 3
Likes 0
Share VATSIM

Download

Looking for another format? Having issues loading an existing format? Contact us
Advertisement - Login to hide

Notes

Basic altitude profile: - Ascent Rate: 2500ft/min - Ascent Speed: 250kts - Cruise Altitude: 35000ft - Cruise Speed: 420kts - Descent Rate: 1500ft/min - Descent Speed: 250kts Options: - Use NATs: yes - Use PACOTS: yes - Use low airways: yes - Use high airways: yes

Route

KSBA WEEZL KAVX

ID Type Via Altitude Latitude Longitude Leg Dist Tot Dist Heading (true) Name
O KSBA APT - 0 ft / 0 m 34.42596˚ -119.84072˚ - 0 nm - Santa Barbara Mun
WEEZL FIX - 8,100 ft / 2,469 m 33.79093˚ -119.01553˚ 56 nm 56 nm 133° / 133° -
O KAVX APT - 0 ft / 0 m 33.40466˚ -118.41588˚ 37 nm 93 nm 128° / 128° Catalina

Altitude Profile

Advertisement - Login to hide

KSBA

Details ICAO KSBA (SBA)
Name Santa Barbara Mun
Region United States
Timezone America/Los_Angeles (UTC-7.0)
Stats Elevation 13 ft / 4 m (AMSL)
Location 34.425961° -119.840724°
Runways 3
Magnetic Variation 12.333° E

METAR

KSBA 251453Z VRB03KT 10SM SCT060 15/10 A3010 RMK AO2 SLP193 T01500100 53006

Decode

TAF

KSBA 251141Z 2512/2612 VRB03KT 6SM -DZ BR SCT025 OVC040 FM251700 16007KT P6SM BKN025 OVC035 FM252000 24009KT P6SM BKN040 FM260100 28012KT P6SM SCT040 WS010/33030KT FM260700 32006KT P6SM BKN025

Decode

Departure Runways

ID Width Length Bearing (true) Bearing (mag) Surface Threshold Offset Overrun Length
07 151 ft / 46 m 6,047 ft / 1,843 m 88.54° 76.21° Asphalt 0 ft / 0 m 0 ft / 0 m
15L 75 ft / 23 m 4,182 ft / 1,275 m 165.71° 153.38° Asphalt 217 ft / 66 m 0 ft / 0 m
15R 98 ft / 30 m 4,186 ft / 1,276 m 165.71° 153.38° Asphalt 0 ft / 0 m 0 ft / 0 m
25 151 ft / 46 m 6,047 ft / 1,843 m 268.55° 256.22° Asphalt 0 ft / 0 m 0 ft / 0 m
33L 98 ft / 30 m 4,186 ft / 1,276 m 345.71° 333.38° Asphalt 0 ft / 0 m 0 ft / 0 m
33R 75 ft / 23 m 4,182 ft / 1,275 m 345.72° 333.39° Asphalt 0 ft / 0 m 0 ft / 0 m

KAVX

Details ICAO KAVX (AVX)
Name Catalina
Region United States
Timezone America/Los_Angeles (UTC-7.0)
Stats Elevation 1,601 ft / 488 m (AMSL)
Location 33.404656° -118.415880°
Runways 1
Magnetic Variation 11.863° E

METAR

KAVX 251451Z AUTO 25008KT 10SM FEW006 12/11 A3012 RMK AO2 SLP197 T01220111 51009

Decode

TAF

Not found

Destination Runways

ID Width Length Bearing (true) Bearing (mag) Surface Threshold Offset Overrun Length
04 59 ft / 18 m 3,127 ft / 953 m 54.93° 43.07° Asphalt 131 ft / 40 m 0 ft / 0 m
22 59 ft / 18 m 3,127 ft / 953 m 234.93° 223.07° Asphalt 62 ft / 19 m 0 ft / 0 m

Popular Alternatives